User: anonymous   Login
Location: Melbourne
(37.8170°S, 144.9670°E)
Time: 23:01:12
(UTC+11:00)
Language:

Cosmos 962 Rocket - Orbit

View from above orbital plane
View from above orbital plane
View from above satellite
View from above satellite

Ground track
Ground track

The orbit data is extracted from the following two-line orbital elements,

1 10461U 77107B   17345.88262458 +.00000035 +00000-0 +20355-4 0  9994
2 10461 082.9502 241.4784 0033839 013.2517 033.2182 13.76785243014959
Epoch (UTC): 11 December 2017 21:10:58
Eccentricity: 0.0033839
inclination: 82.9502°
perigee height: 950 km
apogee height: 1000 km
right ascension of ascending node: 241.4784°
argument of perigee: 13.2517°
revolutions per day: 13.76785243
mean anomaly at epoch: 33.2182°
orbit number at epoch: 1495

The dashed part of the orbit path shows where the satellite is in the earth's shadow,  

DLR